Find Starlink 31740

NORAD ID: 59433 Int'l Des: 2024-065 Owner: SPXS Country: US Constellation: starlink operational
LEOCIRCULAR

現在のビュー

3D地球を読み込み中...

About Starlink 31740

Starlink 31740 (NORAD 59433) is a starlink constellation satellite (v2 mini) launched Apr 7, 2024 by SPXS of US. It operates in LEO, CIRCULAR orbit with a mass of 730.00 kg.

Starlink 31740について

説明を読み込み中...

次回通過

Passes for default location (London). Set your location on the main map for personalized predictions.

高度履歴

Loading altitude history...

軌道要素

1 59433U 24065N 26171.30242035 .00000740 00000-0 37104-4 0 9997
2 59433 53.1595 166.9161 0001251 84.1300 275.9844 15.30194026124613
Epoch: Jun 20, 2026 • Age: 23 hours

現在のステータス

高度 492.2 km
速度 7.62 km/s
衛星直下点 -47.32°S, 101.82°E
打ち上げ日 Apr 7, 2024
運用期間 2.2 years
タイプ internet

技術仕様

分類 Payload
質量 730.00 kg
乾燥質量 700.00 kg
総質量 730.00 kg
長さ 0.30 m
直径 4.10 m
スパン 29.00 m
形状 Box + pan
製造者 SPXS
バスタイプ Starlink V2M
フェーズステータス In Orbit
所有者/国 SPXS/US

Most Searched